Theta_e
330 331 332 332 335 345 342 343 344 344 344 346 346 354 352 349 346 345 345 345 345 345 344 344 344 344 347 348 347 347 347 346 347 348 349 348 349 347 349 349 349 349 347 341
326 328 331 333 334 342 343 343 344 345 345 345 343 356 352 346 346 346 345 345 345 345 344 345 345 345 348 349 348 348 348 349 348 348 350 349 347 348 348 349 349 350 344 344
324 328 331 332 334 344 343 341 342 346 344 341 340 355 355 348 347 347 347 346 345 344 344 345 346 347 347 348 350 349 350 350 349 351 350 351 351 350 349 349 350 344 344 342
323 326 328 328 329 332 335 342 337 337 337 339 338 339 346 347 350 343 341 347 346 345 344 345 346 347 347 348 349 349 349 353 351 352 349 351 346 350 349 348 347 341 340 340
322 324 325 326 328 330 330 333 334 334 333 332 338 333 346 346 348 343 342 346 347 346 345 345 346 346 348 347 349 349 349 349 353 352 350 353 350 348 349 350 347 339 338 339
323 327 325 325 327 327 327 327 327 328 329 330 332 334 347 345 348 346 346 342 347 347 346 345 346 347 347 348 348 349 349 350 350 351 349 352 348 353 352 351 349 339 340 340
324 324 325 326 325 325 325 321 324 328 329 330 328 332 331 344 343 342 342 342 344 348 347 346 347 348 348 349 349 349 349 350 351 349 347 349 350 351 352 352 349 346 343 341
321 323 325 326 324 323 323 322 321 328 328 327 324 328 342 345 345 344 342 341 344 345 349 348 347 349 348 349 350 351 351 351 352 352 347 347 350 349 351 352 349 347 347 347
327 327 328 327 326 324 325 323 322 320 321 321 324 330 341 339 338 339 338 342 344 343 347 350 348 349 349 350 351 351 352 353 354 354 354 349 347 351 350 352 352 349 349 348
327 327 327 327 327 326 326 324 320 318 324 326 325 325 327 340 338 338 335 338 339 343 348 350 350 351 350 351 352 352 352 353 351 355 354 354 351 349 351 351 354 352 351 349
326 328 329 330 328 327 324 322 322 318 319 321 322 324 331 341 339 336 338 339 341 345 351 350 352 352 351 351 352 352 352 353 352 354 352 351 354 350 350 353 354 351 351 352
328 328 327 327 328 329 328 329 324 322 325 321 319 322 325 329 333 336 337 337 338 341 351 351 351 352 352 351 352 352 352 352 352 351 351 348 351 352 351 352 353 352 351 352
327 327 325 325 324 326 328 328 328 326 326 324 324 324 330 331 338 342 335 336 338 338 344 352 351 352 352 352 351 352 352 352 352 353 352 348 351 350 351 352 352 354 352 351
328 325 324 324 324 326 328 329 328 327 327 328 328 329 329 330 333 338 342 343 344 344 343 344 352 352 352 353 352 353 352 352 352 353 354 351 352 351 352 355 355 356 354 353
326 326 328 328 328 327 327 328 328 326 327 327 327 328 328 329 335 336 339 344 345 345 345 345 346 352 353 353 353 354 354 353 353 354 354 354 354 356 356 357 355 355 354 352
322 322 326 325 324 322 325 327 328 327 327 327 326 327 338 334 343 342 342 346 347 348 349 345 345 346 353 354 353 354 355 356 355 355 355 354 356 358 358 357 357 355 353 352
318 319 323 324 325 323 325 327 327 327 328 328 328 335 339 343 341 339 341 346 346 348 358 356 355 351 349 355 354 355 356 357 357 356 357 358 358 359 358 358 357 354 352 351
317 319 322 323 324 324 323 325 327 328 330 334 339 338 338 343 335 338 340 337 333 332 350 358 359 356 354 352 357 356 357 358 359 359 359 360 359 359 359 358 354 353 350 348
319 319 320 322 323 323 325 328 330 333 335 343 343 340 334 338 335 338 339 336 333 330 348 344 357 358 355 349 355 357 359 358 359 360 360 361 359 360 359 357 354 352 350 348
323 320 321 325 326 328 329 330 331 331 333 341 343 339 337 337 340 339 342 341 335 348 350 344 354 358 358 352 355 358 359 360 360 361 361 362 361 360 359 356 354 351 349 346
329 333 331 332 333 334 333 335 335 337 342 340 341 339 338 338 339 340 339 349 355 351 347 342 349 356 360 364 360 359 360 360 360 361 362 363 361 361 360 354 353 350 347 342
332 333 331 331 333 334 332 333 336 332 331 330 338 340 337 335 336 336 336 335 333 354 350 343 339 346 353 360 362 362 361 360 360 362 363 363 362 361 359 354 351 345 346 340
329 329 329 332 331 329 327 327 327 328 330 329 330 338 336 333 331 329 330 332 331 331 354 349 341 335 341 350 358 360 361 362 361 359 359 362 359 358 357 352 348 345 343 335
325 328 327 327 328 327 326 326 325 326 325 325 325 328 330 330 328 327 326 327 330 330 333 352 346 341 338 338 348 354 362 362 359 360 359 359 358 355 352 349 346 344 339 332
324 324 326 325 325 326 325 324 323 322 323 323 323 322 323 325 326 325 325 325 325 326 329 336 350 346 339 342 340 347 351 355 358 358 359 357 354 353 350 347 346 343 337 335
323 323 324 324 325 325 323 320 319 319 320 322 322 321 320 319 320 321 321 323 322 323 325 330 335 350 350 343 344 341 348 349 352 354 355 354 352 349 347 344 341 338 336 333
Wind_Speed
18 4 7 13 7 17 13 12 18 24 23 18 19 17 16 20 19 22 26 30 31 31 28 31 28 24 29 29 29 24 30 25 22 17 16 14 14 10 12 11 11 11 6 6
8 8 11 14 18 21 17 10 7 14 26 17 21 16 18 18 18 20 23 27 29 29 30 32 30 28 26 30 29 27 24 27 22 19 9 14 12 12 13 15 14 12 7 9
9 12 13 14 13 15 10 10 11 13 24 8 4 8 19 3 14 18 6 15 33 34 34 35 32 33 27 32 31 29 25 22 22 17 13 14 16 15 14 16 11 7 7 10
8 14 16 15 11 9 10 21 9 8 3 2 2 2 2 4 6 7 35 25 35 39 36 38 37 34 32 33 32 29 25 23 21 19 16 14 17 14 16 13 10 11 11 9
12 9 9 11 11 9 7 8 6 8 8 5 5 5 5 6 5 8 21 21 33 41 40 43 41 36 36 34 32 31 27 27 24 23 22 19 17 10 13 17 14 13 13 9
11 26 7 7 6 6 10 9 10 7 3 5 9 5 6 7 11 14 24 27 28 39 42 46 44 37 38 36 36 32 31 27 27 26 28 21 17 15 15 13 13 16 17 14
9 13 10 8 6 8 7 7 5 5 4 7 11 4 8 22 16 16 21 22 25 35 45 46 46 41 41 40 39 36 33 31 28 27 30 24 20 19 16 14 11 11 11 16
5 9 5 8 9 9 7 4 5 4 4 7 8 6 4 13 21 22 22 20 26 24 35 47 50 47 44 45 43 38 35 30 30 27 29 29 22 23 20 18 13 10 8 9
6 9 14 13 5 11 6 3 7 2 5 4 4 6 5 5 7 17 20 26 37 35 33 46 51 49 46 47 45 41 33 28 28 30 28 31 28 25 23 19 13 14 15 13
8 9 8 10 9 7 2 4 6 4 3 6 7 8 3 6 6 5 10 8 18 38 39 43 50 49 48 46 44 43 34 28 25 28 26 29 31 29 25 18 19 19 19 21
9 6 11 8 5 6 5 2 3 4 5 3 3 7 2 5 13 7 19 32 10 26 44 43 42 48 47 48 45 44 38 34 29 28 28 27 30 31 28 25 24 23 23 23
8 4 6 11 6 12 6 9 2 5 9 5 5 8 7 8 5 18 32 23 15 11 41 43 45 44 45 49 46 46 43 38 33 27 30 28 28 32 33 31 27 28 26 24
6 5 5 12 9 14 7 9 8 5 3 4 3 6 8 10 15 24 12 28 10 12 11 38 47 45 45 50 48 48 46 41 36 34 31 31 30 31 33 34 30 29 27 25
5 3 5 6 9 6 9 13 10 5 3 6 5 9 10 8 6 12 18 18 19 17 14 11 35 42 46 49 49 49 48 43 39 37 34 34 34 33 32 35 33 31 27 25
3 5 6 9 9 10 11 13 12 8 8 4 10 10 13 8 5 13 17 19 15 11 10 10 12 24 42 48 49 48 47 46 42 37 35 37 35 34 36 36 36 34 28 26
8 6 7 6 9 11 12 10 9 9 8 8 9 15 7 17 42 40 39 15 15 9 4 7 11 10 24 46 52 50 48 47 44 40 36 35 36 37 40 38 38 34 30 28
6 5 5 6 9 10 7 9 9 9 8 6 6 2 6 17 18 22 28 31 45 48 27 18 17 18 14 33 47 49 49 45 44 40 37 39 39 43 43 39 36 33 31 28
8 5 3 6 5 6 10 9 10 10 7 7 8 4 8 13 20 22 20 28 43 55 48 33 23 20 19 11 41 45 45 43 40 39 39 43 45 47 44 39 33 32 32 27
12 6 3 4 5 8 8 8 10 4 6 7 7 5 5 7 9 13 16 14 11 30 52 34 29 25 21 8 29 41 42 40 38 41 43 47 47 48 45 40 36 33 32 29
8 9 5 2 4 7 7 14 19 6 1 6 15 9 9 15 6 3 5 5 7 6 18 23 19 23 21 8 15 44 43 43 43 42 45 45 47 47 44 41 37 35 31 29
4 2 3 4 4 5 5 11 17 3 5 11 17 13 10 3 4 6 10 4 6 11 17 25 19 18 16 7 19 36 39 41 42 41 43 45 45 42 42 38 36 33 31 27
1 2 3 2 3 5 18 10 6 6 13 20 7 6 5 5 8 10 9 12 18 18 21 22 26 23 15 9 8 22 31 35 33 39 41 41 40 41 43 37 35 30 29 28
4 3 2 2 3 10 22 19 14 10 9 15 18 4 4 3 9 11 12 14 18 19 16 20 20 22 24 14 5 11 19 25 32 31 34 37 36 39 38 37 34 32 30 29
7 10 1 5 7 11 23 13 17 20 13 11 14 15 12 6 6 9 11 11 14 22 21 22 20 18 17 22 14 8 10 20 25 28 32 33 36 35 36 33 30 31 29 31
7 10 6 7 8 15 16 22 20 19 17 14 12 13 15 15 12 12 13 11 11 18 23 20 22 21 17 15 16 13 12 14 20 26 30 34 35 35 35 33 31 29 27 29
14 10 6 10 16 7 10 21 24 25 24 17 16 17 16 18 17 16 16 14 15 19 22 21 19 19 20 18 15 16 11 14 18 23 30 35 36 36 38 34 27 26 26 26
Wind_Direction
288 216 243 257 271 155 123 106 307 312 290 271 242 206 183 190 177 167 176 182 194 199 202 193 191 195 197 195 193 198 193 209 213 203 193 210 214 206 187 193 198 202 225 225
295 266 254 262 272 141 144 175 191 209 263 261 268 170 179 176 179 169 177 184 195 201 198 193 190 190 200 195 196 190 198 202 212 218 202 208 189 188 184 198 200 235 212 197
232 256 269 268 272 153 188 203 248 212 239 253 287 145 157 73 109 131 159 216 199 201 200 192 188 191 194 191 192 190 192 204 209 197 196 187 195 201 200 196 198 230 216 189
235 249 266 279 279 259 223 222 287 320 23 272 38 217 129 180 175 169 214 213 208 200 199 194 187 190 193 193 192 196 205 203 207 200 206 209 208 200 190 205 218 205 195 188
265 273 262 272 274 292 277 298 331 326 330 16 300 80 251 183 187 197 243 230 220 199 195 191 190 189 195 198 199 201 207 210 204 210 215 213 214 199 209 219 221 202 200 198
263 286 269 259 306 353 341 353 337 322 352 339 261 172 246 190 191 210 230 234 212 197 194 192 193 191 194 199 202 203 202 210 217 214 218 213 210 199 207 217 215 222 226 219
281 269 271 277 309 338 346 351 328 334 340 233 259 292 229 199 192 198 214 231 273 197 192 187 188 190 193 196 202 205 206 211 216 214 215 213 206 205 210 222 204 200 204 205
249 311 289 289 187 203 245 188 161 287 275 268 327 296 184 166 192 183 191 201 219 236 197 189 190 191 193 200 201 205 207 210 215 216 213 216 208 209 211 218 206 190 209 193
9 322 330 325 291 168 252 281 237 300 290 7 283 347 8 84 168 205 181 186 216 217 223 191 188 192 193 198 201 204 208 210 216 218 216 215 213 208 212 211 207 202 217 220
325 338 313 307 351 351 118 234 358 352 2 325 307 298 207 225 210 358 40 257 244 217 213 185 188 191 195 199 202 203 209 209 216 219 221 215 216 211 213 212 211 214 215 221
6 16 305 342 325 318 318 270 239 166 149 198 296 286 162 194 188 172 84 38 342 190 185 185 185 193 196 197 199 202 206 209 210 217 220 216 212 213 210 212 212 213 217 222
10 275 326 296 347 19 31 11 36 112 291 230 168 273 315 4 28 148 148 174 166 87 184 189 189 193 193 196 198 201 203 210 215 215 219 218 211 212 209 212 214 219 221 221
18 342 350 335 341 2 7 334 324 340 46 285 111 270 44 31 52 48 172 180 165 130 114 190 189 193 196 197 199 202 205 211 214 213 218 217 213 211 211 215 214 219 222 227
114 253 217 248 269 299 333 330 331 342 10 306 285 324 343 6 74 83 87 75 58 54 57 70 190 194 198 197 199 204 205 210 214 213 216 220 216 212 210 212 214 219 225 227
138 252 271 283 315 329 319 310 310 311 289 313 300 322 306 341 159 137 113 104 88 59 15 21 17 198 203 198 199 206 205 207 210 212 217 221 217 213 211 211 214 222 225 221
332 311 334 327 321 314 311 308 297 290 291 297 297 292 13 40 53 44 19 71 107 97 60 293 306 311 221 207 202 204 207 207 207 211 216 216 213 214 214 216 217 219 219 221
287 294 338 294 312 314 324 292 306 295 311 325 298 311 316 47 44 35 40 29 17 354 1 6 343 331 337 218 206 204 208 208 210 213 214 212 210 213 212 216 218 216 217 224
234 243 219 251 293 285 253 276 293 293 317 41 75 54 57 85 69 37 31 37 21 351 314 345 358 7 351 271 209 206 206 208 211 212 213 211 210 211 209 213 226 221 218 221
212 197 225 202 232 265 299 281 336 333 1 87 94 106 93 140 48 30 5 311 329 331 315 338 331 348 345 301 227 207 201 206 209 210 210 213 210 208 208 216 225 225 217 217
241 192 149 251 228 254 261 291 295 285 245 98 81 59 29 43 50 254 97 57 183 208 311 336 326 331 347 324 233 208 202 201 204 208 211 212 210 210 212 227 220 216 218 215
307 339 210 255 264 295 321 359 338 47 329 11 92 87 43 72 109 60 40 85 2 355 350 0 341 333 344 356 217 208 203 203 208 211 211 212 212 211 219 220 216 213 214 210
307 312 263 306 330 295 12 22 80 215 340 346 337 123 93 358 18 33 351 4 1 343 339 349 360 350 325 341 218 210 205 206 215 214 213 214 216 214 215 216 220 217 212 207
360 84 270 323 264 342 14 3 1 10 35 23 2 25 101 54 5 14 3 347 347 346 319 334 343 357 351 324 307 215 221 221 220 224 232 216 212 210 214 217 218 211 207 206
320 358 1 10 328 334 327 9 13 21 26 17 360 360 2 334 339 349 333 338 318 330 334 314 327 332 353 354 335 270 231 229 237 235 231 221 216 213 214 216 219 213 204 203
264 329 296 289 305 327 319 326 339 329 325 337 329 329 330 340 329 310 321 307 308 318 316 320 305 314 324 336 341 325 272 251 236 231 230 215 212 216 217 222 214 214 212 216
258 254 270 273 284 311 328 324 323 325 329 300 291 295 302 319 321 316 306 297 295 296 305 305 299 299 305 318 316 331 275 256 246 236 223 225 218 216 210 204 205 209 209 213